Tracking 28790 objects as of 18-Apr-2024
HD Live streaming from Space Station
objects crossing your sky now

SKIPPER

Track SKIPPER now!
10-day predictions
SKIPPER is classified as:


NORAD ID: 23752
Int'l Code: 1995-072B
Perigee: 809.2 km
Apogee: 815.6 km
Inclination: 98.8 °
Period: 101.0 minutes
Semi major axis: 7183 km
RCS: 0.7042 m2 (medium)
Launch date: December 28, 1995
Source: United States (US)
Launch site: TYURATAM MISSILE AND SPACE COMPLEX (TTMTR)
Your satellite tracking list
Your tracking list is empty




NASA's NSSDC Master Catalog

Two Line Element Set (TLE):
1 23752U 95072B   24109.75628779  .00000120  00000-0  69367-4 0  9997
2 23752  98.8350 168.3055 0004438 253.2714 106.7978 14.25972660473054
Source of the keplerian elements: AFSPC